KUIPER-00032

Last updated on Thu May 29 2025 00:02:05 GMT+0000 (Coordinated Universal Time)

1 63745U 25088X 25148.43370315 .00013173 00000+0 37906-3 0 9996 2 63745 51.8702 315.6789 0004662 198.6346 161.4470 15.36092244 5772
UTC large
Height (km)
Speed (km/s)
/
Latitude / Longitude
Inclination (degrees)
Orbital Period (minutes)
Azimuth
Elevation
Range (km)
Doppler Factor

Next 0 passes for location: London (51.5072 / 0.1276)

Sorry there are no passes over London.